TimeCDT,TemperatureF,Dew PointF,Humidity,Sea Level PressureIn,VisibilityMPH,Wind Direction,Wind SpeedMPH,Gust SpeedMPH,PrecipitationIn,Events,Conditions,WindDirDegrees,DateUTC
12:15 AM,57.2,41.0,55,29.96,10.0,NW,23.0,28.8,N/A,,Clear,310,2012-10-14 05:15:00
12:35 AM,55.4,41.0,58,29.96,10.0,WNW,20.7,25.3,N/A,,Clear,300,2012-10-14 05:35:00
12:55 AM,55.4,41.0,58,29.95,10.0,NW,20.7,26.5,N/A,,Clear,320,2012-10-14 05:55:00
1:15 AM,55.4,41.0,58,29.96,10.0,NW,20.7,27.6,N/A,,Clear,310,2012-10-14 06:15:00
1:35 AM,55.4,41.0,58,29.97,10.0,NW,20.7,26.5,N/A,,Clear,310,2012-10-14 06:35:00
1:55 AM,55.4,41.0,58,29.99,10.0,NW,16.1,21.9,N/A,,Clear,310,2012-10-14 06:55:00
2:15 AM,55.4,41.0,58,29.99,10.0,NW,17.3,-,N/A,,Clear,310,2012-10-14 07:15:00
2:55 AM,55.4,41.0,58,30.02,10.0,NW,17.3,-,N/A,,Clear,310,2012-10-14 07:55:00
3:15 AM,55.4,39.2,54,30.02,10.0,NW,15.0,21.9,N/A,,Clear,320,2012-10-14 08:15:00
3:35 AM,55.4,39.2,54,30.03,10.0,NNW,10.4,-,N/A,,Clear,330,2012-10-14 08:35:00
3:55 AM,53.6,39.2,58,30.03,10.0,WNW,12.7,-,N/A,,Clear,300,2012-10-14 08:55:00
4:15 AM,53.6,39.2,58,30.05,10.0,WNW,10.4,-,N/A,,Clear,300,2012-10-14 09:15:00
4:35 AM,51.8,41.0,67,30.06,10.0,NW,12.7,-,N/A,,Clear,310,2012-10-14 09:35:00
4:55 AM,51.8,39.2,62,30.08,10.0,NW,10.4,-,N/A,,Clear,310,2012-10-14 09:55:00
5:15 AM,50.0,41.0,71,30.08,10.0,NW,11.5,-,N/A,,Clear,320,2012-10-14 10:15:00
5:35 AM,50.0,41.0,71,30.09,10.0,NW,11.5,-,N/A,,Clear,310,2012-10-14 10:35:00
5:55 AM,48.2,41.0,76,30.11,10.0,WNW,10.4,-,N/A,,Clear,300,2012-10-14 10:55:00
6:15 AM,48.2,39.2,71,30.11,10.0,NW,9.2,-,N/A,,Clear,320,2012-10-14 11:15:00
6:35 AM,50.0,41.0,71,30.12,10.0,NW,11.5,-,N/A,,Clear,320,2012-10-14 11:35:00
6:55 AM,50.0,41.0,71,30.13,10.0,NNW,11.5,-,N/A,,Clear,330,2012-10-14 11:55:00
7:15 AM,50.0,41.0,71,30.14,10.0,NW,9.2,-,N/A,,Clear,320,2012-10-14 12:15:00
7:35 AM,46.4,39.2,76,30.15,10.0,NW,9.2,-,N/A,,Clear,310,2012-10-14 12:35:00
7:55 AM,46.4,41.0,81,30.16,10.0,NW,10.4,-,N/A,,Clear,320,2012-10-14 12:55:00
8:15 AM,46.4,41.0,81,30.17,10.0,WNW,9.2,-,N/A,,Clear,290,2012-10-14 13:15:00
8:35 AM,48.2,41.0,76,30.18,10.0,West,9.2,-,N/A,,Clear,280,2012-10-14 13:35:00
8:55 AM,51.8,41.0,67,30.19,10.0,WNW,10.4,-,N/A,,Clear,290,2012-10-14 13:55:00
9:15 AM,53.6,41.0,62,30.21,10.0,WNW,11.5,-,N/A,,Clear,300,2012-10-14 14:15:00
9:35 AM,55.4,41.0,58,30.22,10.0,NW,10.4,-,N/A,,Clear,310,2012-10-14 14:35:00
9:55 AM,59.0,41.0,51,30.23,10.0,NNW,15.0,-,N/A,,Clear,330,2012-10-14 14:55:00
10:15 AM,60.8,39.2,45,30.23,10.0,NNW,17.3,-,N/A,,Clear,340,2012-10-14 15:15:00
10:35 AM,62.6,37.4,39,30.24,10.0,North,20.7,-,N/A,,Clear,350,2012-10-14 15:35:00
10:55 AM,62.6,37.4,39,30.25,10.0,North,17.3,25.3,N/A,,Clear,350,2012-10-14 15:55:00
11:15 AM,64.4,37.4,37,30.25,10.0,North,15.0,18.4,N/A,,Clear,360,2012-10-14 16:15:00
11:35 AM,66.2,35.6,32,30.25,10.0,North,13.8,25.3,N/A,,Clear,10,2012-10-14 16:35:00
11:55 AM,68.0,35.6,30,30.26,10.0,North,15.0,20.7,N/A,,Clear,360,2012-10-14 16:55:00
12:15 PM,68.0,35.6,30,30.25,10.0,North,12.7,20.7,N/A,,Clear,10,2012-10-14 17:15:00
12:35 PM,68.0,35.6,30,30.25,10.0,North,12.7,-,N/A,,Clear,10,2012-10-14 17:35:00
12:55 PM,69.8,35.6,28,30.25,10.0,North,13.8,24.2,N/A,,Clear,10,2012-10-14 17:55:00
1:15 PM,69.8,35.6,28,30.25,10.0,North,17.3,24.2,N/A,,Clear,360,2012-10-14 18:15:00
1:35 PM,69.8,35.6,28,30.24,10.0,North,15.0,19.6,N/A,,Clear,360,2012-10-14 18:35:00
1:55 PM,69.8,35.6,28,30.23,10.0,North,12.7,18.4,N/A,,Clear,10,2012-10-14 18:55:00
2:15 PM,71.6,35.6,27,30.23,10.0,North,13.8,17.3,N/A,,Clear,350,2012-10-14 19:15:00
2:35 PM,71.6,35.6,27,30.22,10.0,NNW,11.5,16.1,N/A,,Clear,340,2012-10-14 19:35:00
2:55 PM,71.6,35.6,27,30.21,10.0,NNW,10.4,16.1,N/A,,Clear,330,2012-10-14 19:55:00
3:15 PM,71.6,35.6,27,30.20,10.0,North,6.9,-,N/A,,Clear,360,2012-10-14 20:15:00
3:35 PM,71.6,33.8,25,30.19,10.0,WNW,8.1,17.3,N/A,,Clear,290,2012-10-14 20:35:00
3:55 PM,71.6,33.8,25,30.19,10.0,NNW,8.1,-,N/A,,Clear,340,2012-10-14 20:55:00
4:15 PM,71.6,33.8,25,30.19,10.0,North,9.2,-,N/A,,Clear,350,2012-10-14 21:15:00
4:35 PM,73.4,33.8,23,30.19,10.0,North,13.8,-,N/A,,Clear,360,2012-10-14 21:35:00
4:55 PM,73.4,33.8,23,30.19,10.0,NW,11.5,-,N/A,,Clear,320,2012-10-14 21:55:00
5:15 PM,71.6,33.8,25,30.18,10.0,NNW,9.2,-,N/A,,Clear,330,2012-10-14 22:15:00
5:35 PM,71.6,33.8,25,30.18,10.0,North,9.2,21.9,N/A,,Clear,360,2012-10-14 22:35:00
5:55 PM,71.6,33.8,25,30.18,10.0,North,9.2,-,N/A,,Clear,350,2012-10-14 22:55:00
6:15 PM,71.6,33.8,25,30.18,10.0,North,4.6,-,N/A,,Clear,350,2012-10-14 23:15:00
6:35 PM,69.8,33.8,27,30.18,10.0,North,6.9,-,N/A,,Clear,350,2012-10-14 23:35:00
6:55 PM,68.0,33.8,28,30.18,10.0,Calm,Calm,-,N/A,,Clear,0,2012-10-14 23:55:00
7:15 PM,68.0,33.8,28,30.18,10.0,Calm,Calm,-,N/A,,Clear,0,2012-10-15 00:15:00
7:35 PM,64.4,33.8,32,30.19,10.0,Calm,Calm,-,N/A,,Clear,0,2012-10-15 00:35:00
7:55 PM,66.2,33.8,30,30.19,10.0,Calm,Calm,-,N/A,,Clear,0,2012-10-15 00:55:00
8:15 PM,64.4,33.8,32,30.19,10.0,Calm,Calm,-,N/A,,Clear,0,2012-10-15 01:15:00
8:35 PM,62.6,35.6,37,30.19,10.0,South,3.5,-,N/A,,Clear,170,2012-10-15 01:35:00
8:55 PM,59.0,35.6,42,30.19,10.0,South,4.6,-,N/A,,Clear,190,2012-10-15 01:55:00
9:15 PM,60.8,33.8,36,30.19,10.0,South,3.5,-,N/A,,Clear,180,2012-10-15 02:15:00
9:35 PM,60.8,33.8,36,30.20,10.0,Calm,Calm,-,N/A,,Clear,0,2012-10-15 02:35:00
9:55 PM,53.6,35.6,51,30.21,10.0,ESE,3.5,-,N/A,,Clear,110,2012-10-15 02:55:00
10:15 PM,55.4,37.4,51,30.21,10.0,South,5.8,-,N/A,,Clear,180,2012-10-15 03:15:00
10:35 PM,55.4,35.6,47,30.21,10.0,SSE,4.6,-,N/A,,Clear,160,2012-10-15 03:35:00
10:55 PM,59.0,35.6,42,30.21,10.0,SSE,4.6,-,N/A,,Clear,150,2012-10-15 03:55:00
11:15 PM,59.0,35.6,42,30.21,10.0,SSE,5.8,-,N/A,,Clear,150,2012-10-15 04:15:00
11:35 PM,53.6,37.4,54,30.21,10.0,SSE,5.8,-,N/A,,Clear,160,2012-10-15 04:35:00
11:55 PM,50.0,37.4,62,30.21,10.0,South,8.1,-,N/A,,Clear,170,2012-10-15 04:55:00